CAPE
nan nan nan nan nan nan nan nan nan nan nan nan nan nan nan nan nan nan nan nan nan nan nan nan nan nan nan nan nan nan 1 1 1 1 1 2 3 3 3 3 3 1 0 0 0 0 0 1 1 2 2 1 0 0 nan 0 0 0 0 0 0 1 2 3 3 4 5 5 5 5 4 3 3 3 3 3 2 2 3 7 7 11 19 29 29 34
nan nan nan nan nan nan nan nan nan nan nan nan nan nan nan nan nan nan nan nan nan nan nan nan nan nan nan nan nan nan 1 1 2 2 3 3 3 3 4 3 3 2 2 1 1 1 2 3 3 3 2 1 0 0 0 0 0 0 0 1 1 1 2 3 3 4 5 6 7 7 7 7 7 7 7 7 9 9 13 17 17 19 26 29 29 31
nan nan nan nan nan nan nan nan nan nan nan nan nan nan nan nan nan nan nan nan nan nan nan nan nan nan nan nan nan nan 0 1 3 3 3 4 3 3 3 3 3 2 2 3 3 4 5 4 4 3 1 1 0 0 1 1 1 0 0 0 0 0 1 1 1 1 1 1 3 3 4 5 6 6 8 11 15 15 19 22 22 23 27 30 30 33
nan nan nan nan nan nan nan nan nan nan nan nan nan nan nan nan nan nan nan nan nan nan nan nan nan nan nan nan nan nan nan 0 2 2 2 2 2 2 3 3 3 3 4 4 4 5 5 4 4 4 2 1 1 1 1 1 1 0 0 nan nan nan nan nan nan nan nan nan nan nan nan 1 2 2 6 11 16 16 19 19 19 21 26 30 30 36
nan nan nan nan nan nan nan nan nan nan nan nan nan nan nan nan nan nan nan nan nan nan nan nan nan nan nan nan nan nan nan nan nan nan nan 0 1 1 2 2 2 3 4 5 5 4 5 5 5 3 2 1 1 1 1 0 0 0 nan nan nan nan nan nan nan nan nan nan nan nan nan nan 0 0 2 6 11 11 15 16 16 20 25 30 30 34
nan nan nan nan nan nan nan nan nan nan nan nan nan nan nan nan nan nan nan nan nan nan nan nan nan nan nan nan nan nan nan nan nan nan nan nan nan nan nan 0 0 2 3 3 3 3 2 1 1 0 0 0 0 0 0 0 0 nan nan nan nan nan nan nan nan nan nan nan nan nan nan nan nan nan nan 0 4 4 9 14 14 19 24 27 27 33
nan nan nan nan nan nan nan nan nan nan nan nan nan nan nan nan nan nan nan nan nan nan nan nan nan nan nan nan nan nan nan nan nan nan nan nan nan nan nan nan nan 0 0 0 0 nan nan nan nan nan nan nan nan nan nan nan nan nan nan nan nan nan nan nan nan nan nan nan nan nan nan nan nan nan nan nan nan nan 3 10 10 17 24 26 26 31
nan nan nan nan nan nan nan nan nan nan nan nan nan nan nan nan nan nan nan nan nan nan nan nan nan nan nan nan nan nan nan nan nan nan nan nan nan nan nan nan nan nan nan nan nan nan nan nan nan nan nan nan nan nan nan nan nan nan nan nan nan nan nan nan nan nan nan nan nan nan nan nan nan nan nan nan nan nan nan nan nan 3 12 22 22 31
nan nan nan nan nan nan nan nan nan nan nan nan nan nan nan nan nan nan nan nan nan nan nan nan nan nan nan nan nan nan nan nan nan nan nan nan nan nan nan nan nan nan nan nan nan nan nan nan nan nan nan nan nan nan nan nan nan nan nan nan nan nan nan nan nan nan nan nan nan nan nan nan nan nan nan nan nan nan nan nan nan nan 3 10 10 19
nan nan nan nan nan nan nan nan nan nan nan nan nan nan nan nan nan nan nan nan nan nan nan nan nan nan nan nan nan nan nan nan nan nan nan nan nan nan nan nan nan nan nan nan nan nan nan nan nan nan nan 0 0 0 0 nan nan nan nan nan nan nan nan nan nan nan nan nan nan nan nan nan nan nan nan nan nan nan nan nan nan nan nan 3 3 9
nan nan nan nan nan nan nan nan nan nan nan nan nan nan nan nan nan nan nan nan nan nan nan nan nan nan nan nan nan nan nan nan nan nan nan nan nan nan nan nan nan nan nan nan nan nan nan nan nan nan nan nan nan nan nan nan nan nan nan nan nan nan nan nan nan nan nan 0 0 0 0 0 nan nan nan nan nan nan nan nan nan nan nan nan nan 2
nan nan nan nan nan nan nan nan nan nan nan nan nan nan nan nan nan nan nan nan nan nan nan nan nan nan nan nan nan nan nan nan nan nan nan nan nan nan nan nan nan nan nan nan nan nan nan nan nan nan nan nan nan nan nan nan nan nan nan nan nan nan nan 0 0 0 0 1 2 2 3 2 1 1 0 nan nan nan nan nan nan nan nan nan nan 0
nan nan nan nan nan nan nan nan nan nan nan nan nan nan nan nan nan nan nan nan nan nan nan nan nan nan nan nan nan nan nan nan nan nan nan nan nan nan nan nan nan nan nan nan nan nan nan nan nan nan nan nan nan nan nan nan nan nan nan nan nan nan 0 0 0 0 1 2 3 3 4 3 3 3 2 1 0 0 0 0 0 nan nan nan nan 0
nan nan nan nan nan nan nan nan nan nan nan nan nan nan nan nan nan nan nan nan nan nan nan nan nan nan nan nan nan nan nan nan nan nan nan nan nan nan nan nan nan nan nan nan nan nan nan nan nan nan nan nan nan nan nan nan nan nan nan nan nan 0 0 1 1 1 2 2 3 3 4 4 4 4 3 2 2 2 2 1 1 1 1 1 1 1
nan nan nan nan nan nan nan nan nan nan nan nan nan nan nan nan nan nan nan nan nan nan nan nan nan nan nan nan nan nan nan nan nan nan nan nan nan nan nan nan nan nan nan nan nan nan nan nan nan nan nan nan nan nan nan nan nan nan nan 0 0 1 2 3 3 3 3 3 4 4 4 5 5 5 5 4 3 3 3 3 3 3 4 4 4 5
nan nan nan nan nan nan nan nan nan nan nan nan nan nan nan nan nan nan nan nan nan nan nan nan nan nan nan nan nan nan nan nan nan nan nan nan nan nan nan nan nan nan nan nan nan nan nan nan nan nan nan nan nan nan nan nan nan nan 0 1 1 2 3 5 5 5 4 4 4 4 5 5 6 6 6 5 4 4 4 5 5 6 7 8 8 10
nan nan nan nan nan nan nan nan nan nan nan nan nan nan nan nan nan nan nan nan nan nan nan nan nan nan nan nan nan nan nan nan nan nan nan nan nan nan nan nan nan nan nan nan nan nan nan nan nan nan nan nan nan nan nan nan nan nan 0 2 2 2 3 4 4 6 6 5 5 5 6 5 6 6 6 6 5 5 4 6 6 7 8 11 11 12
nan nan nan nan nan nan nan nan nan nan nan nan nan nan nan nan nan nan nan nan nan nan nan nan nan nan nan nan nan nan nan nan nan nan nan nan nan nan nan nan nan nan nan nan nan nan nan nan nan nan nan nan nan nan nan nan nan nan 1 2 2 2 2 3 3 4 5 6 6 6 5 5 5 5 5 6 6 6 6 6 6 7 8 10 10 12
nan nan nan nan nan nan nan nan nan nan nan nan nan nan nan nan nan nan nan nan nan nan nan nan nan nan nan nan nan nan nan nan nan nan nan nan nan nan nan nan nan nan nan nan nan nan nan nan nan nan nan nan nan nan nan nan nan nan 0 1 1 2 2 2 2 3 5 7 6 6 6 5 6 6 6 7 6 6 8 8 8 7 8 9 9 11
nan nan nan nan nan nan nan nan nan nan nan nan nan nan nan nan nan nan nan nan nan nan nan nan nan nan nan nan nan nan nan nan nan nan nan nan nan nan nan nan nan nan nan nan nan nan nan nan nan nan nan nan nan nan nan nan nan nan 0 1 1 1 0 1 1 3 5 8 8 8 10 9 8 8 8 8 8 8 8 9 9 8 9 9 9 11
nan nan nan nan nan nan nan nan nan nan nan nan nan nan nan nan nan nan nan nan nan nan nan nan nan nan nan nan nan nan nan nan nan nan nan nan nan nan nan nan nan nan nan nan nan nan nan nan nan nan nan nan nan nan nan nan nan nan 0 0 0 nan 0 1 1 3 5 7 10 10 13 14 15 15 16 13 14 14 14 12 12 11 10 10 10 12
nan nan nan nan nan nan nan nan nan nan nan nan nan nan nan nan nan nan nan nan nan nan nan nan nan nan nan nan nan nan nan nan nan nan nan nan nan nan nan nan nan nan nan nan nan nan nan nan nan nan nan nan nan nan nan nan nan nan nan nan nan nan nan 1 1 3 4 5 7 7 9 11 14 14 15 15 16 16 14 16 16 15 15 15 15 15
nan nan nan nan nan nan nan nan nan nan nan nan nan nan nan nan nan nan nan nan nan nan nan nan nan nan nan nan nan nan nan nan nan nan nan nan nan nan nan nan nan nan nan nan nan nan nan nan nan nan nan nan nan nan nan nan nan nan nan nan nan nan nan 0 0 2 3 4 5 5 6 7 8 8 10 14 16 16 18 19 19 21 21 21 21 23
nan nan nan nan nan nan nan nan nan nan nan nan nan nan nan nan nan nan nan nan nan nan nan nan nan nan nan nan nan nan nan nan nan nan nan nan nan nan nan nan nan nan nan nan nan nan nan nan nan nan nan nan nan nan nan nan nan nan nan nan nan nan nan 1 1 2 3 4 4 4 4 5 5 5 7 8 10 10 13 17 17 19 20 24 24 27
nan nan nan nan nan nan nan nan nan nan nan nan nan nan nan nan nan nan nan nan nan nan nan nan nan nan nan nan nan nan nan nan nan nan nan nan nan nan nan nan nan nan nan nan nan nan nan nan nan nan nan nan nan nan nan nan nan nan nan nan nan 0 1 2 2 3 4 4 4 4 4 4 4 4 6 7 7 7 10 13 13 16 19 20 20 21
nan nan nan nan nan nan nan nan nan nan nan nan nan nan nan nan nan nan nan nan nan nan nan nan nan nan nan nan nan nan nan nan nan nan nan nan nan nan nan nan nan nan nan nan nan nan nan nan nan nan nan nan nan nan nan nan nan nan nan nan nan 0 1 2 2 4 4 5 5 5 4 4 5 5 5 5 7 7 8 10 10 14 15 17 17 19
nan nan nan nan nan 0 0 nan 0 0 nan nan nan nan nan nan nan nan nan nan nan nan nan nan nan nan nan nan nan nan nan nan nan nan nan nan nan nan nan nan nan nan nan nan nan nan nan nan nan nan nan nan nan nan nan nan nan nan nan nan nan nan 0 1 1 2 2 3 4 4 4 5 5 5 5 5 6 6 7 8 8 9 13 15 15 17
nan nan nan nan nan nan nan nan 0 0 3 4 nan nan nan nan nan nan nan nan nan nan nan nan nan nan nan nan nan nan nan nan nan nan nan nan nan nan nan nan nan nan nan nan nan nan nan nan nan nan nan nan nan nan nan nan nan nan nan nan nan nan nan 0 0 0 1 2 3 3 4 5 5 5 5 6 5 5 6 6 6 8 10 9 9 nan
nan nan nan nan nan nan nan nan nan nan nan 2 7 7 nan nan nan nan nan nan nan nan nan nan nan nan nan nan nan nan nan nan nan nan nan nan nan nan nan nan nan nan nan nan nan nan nan nan nan nan nan nan nan nan nan nan nan nan nan nan nan nan nan nan nan nan 0 1 2 2 3 4 5 5 6 6 6 6 6 6 6 6 6 2 2 0
nan nan nan nan nan nan nan nan nan nan nan nan 4 4 nan nan nan nan nan nan nan nan nan nan nan nan nan nan nan nan nan nan nan nan nan nan nan nan nan nan nan nan nan nan nan nan nan nan nan nan nan nan nan nan nan nan nan nan nan nan nan nan nan nan nan nan 0 1 2 2 3 4 4 4 5 5 5 5 6 6 6 4 1 nan nan nan
nan nan nan nan nan nan nan nan nan nan nan 0 0 0 nan nan nan nan nan nan nan nan nan nan nan nan nan nan nan nan nan nan nan nan nan nan nan nan nan nan nan nan nan nan nan nan nan nan nan nan nan nan nan nan nan nan nan nan nan nan nan nan nan 0 0 0 0 0 1 1 1 3 4 4 5 5 5 5 6 6 6 4 nan nan nan nan
nan nan nan nan nan nan nan nan nan nan nan nan nan nan nan nan nan nan nan nan nan nan nan nan nan nan nan nan nan nan nan nan nan nan nan nan nan nan nan nan nan nan nan nan nan nan nan nan nan nan nan nan nan nan nan nan nan nan nan nan nan nan nan nan nan nan nan nan nan nan nan 0 1 1 1 2 3 3 3 4 4 4 nan nan nan nan
nan nan nan nan nan nan nan nan nan nan nan nan nan nan nan nan nan nan nan nan nan nan nan nan nan nan nan nan nan nan nan nan nan nan nan nan nan nan nan nan nan nan nan nan nan nan nan nan nan nan nan nan nan nan nan nan nan nan nan nan nan nan nan nan nan nan nan nan nan nan nan nan nan nan 0 1 1 1 2 3 3 5 0 nan nan nan
nan nan nan nan nan nan nan nan nan nan nan nan nan nan nan nan nan nan nan nan nan nan nan nan nan nan nan nan nan nan nan nan nan nan nan nan nan nan nan nan nan nan nan nan nan nan nan nan nan nan nan nan nan nan nan nan nan nan nan nan nan nan nan nan nan nan nan nan nan nan nan nan nan nan nan nan 0 0 1 2 2 4 5 nan nan nan
nan nan nan nan nan nan nan nan nan nan nan nan nan nan nan nan nan nan nan nan nan nan nan nan nan nan nan nan nan nan nan nan nan nan nan nan nan nan nan nan nan nan nan nan nan nan nan nan nan nan nan nan nan nan nan nan nan nan nan nan nan nan nan nan nan nan nan nan nan nan nan nan nan nan nan nan 0 0 3 4 4 5 4 7 7 2
nan nan nan nan nan nan nan nan nan nan nan nan nan nan nan nan nan nan nan nan nan nan nan nan nan nan nan nan nan nan nan nan nan nan nan nan nan nan nan nan nan nan nan nan nan nan nan nan nan nan nan nan nan nan nan nan nan nan nan nan nan nan nan nan nan nan nan nan nan nan nan nan nan nan nan nan 0 0 3 5 5 4 4 5 5 5
nan nan nan nan nan nan nan nan nan nan nan nan nan nan nan nan nan nan nan nan nan nan nan nan nan nan nan nan nan nan nan nan nan nan nan nan nan nan nan nan nan nan nan nan nan nan nan nan nan nan nan nan nan nan nan nan nan nan nan nan nan nan nan nan nan nan nan nan nan nan nan nan nan nan nan nan nan nan nan nan nan nan 2 2 2 3
nan nan nan nan nan nan nan nan nan nan nan nan nan nan nan nan nan nan nan nan nan nan nan nan nan nan nan nan nan nan nan nan nan nan nan nan nan nan nan nan nan nan nan nan nan nan nan nan nan nan nan nan nan nan nan nan nan nan nan nan nan nan nan nan nan nan nan nan nan nan nan nan nan nan nan nan nan nan nan nan nan nan nan nan nan 1
nan nan nan nan nan nan nan nan nan nan nan nan nan nan nan nan nan nan nan nan nan nan nan nan nan nan nan nan nan nan nan nan nan nan nan nan nan nan nan nan nan nan nan nan nan nan nan nan nan nan nan nan nan nan nan nan nan nan nan nan nan nan nan nan nan nan nan nan nan nan nan nan nan nan nan nan nan nan nan nan nan nan nan nan nan nan
nan nan nan nan nan nan nan nan nan nan nan nan nan nan nan nan nan nan nan nan nan nan nan nan nan nan nan nan nan nan nan nan nan nan nan nan nan nan nan nan nan nan nan nan nan nan nan nan nan nan nan nan nan nan nan nan nan nan nan nan nan nan nan nan nan nan nan nan nan nan nan nan nan nan nan nan nan nan nan nan nan nan nan nan nan nan
nan nan nan nan nan nan nan nan nan nan nan nan nan nan nan nan nan nan nan nan nan nan nan nan nan nan nan nan nan nan nan nan nan nan nan nan nan nan nan nan nan nan nan nan nan nan nan nan nan nan nan nan nan nan 0 nan nan nan 1 nan nan nan nan nan nan nan nan nan nan nan nan nan nan nan nan nan nan nan nan nan nan nan nan nan nan nan
nan nan nan nan nan nan nan nan nan nan nan nan nan nan nan nan nan nan nan nan nan nan nan nan nan nan nan nan nan nan nan nan nan nan nan nan nan nan nan nan nan nan nan nan nan nan nan nan nan nan nan nan nan nan nan nan nan nan nan nan nan nan nan nan nan nan nan nan nan nan nan nan nan nan nan nan nan nan nan nan nan nan nan nan nan nan
nan nan nan nan nan nan nan nan nan nan nan nan nan nan nan nan nan nan nan nan nan nan nan nan nan nan nan nan nan nan nan nan nan nan nan nan nan nan nan nan nan nan nan nan nan nan nan nan nan nan nan nan nan nan nan nan nan nan nan nan nan nan nan nan nan nan nan nan nan nan nan nan nan nan nan nan nan nan nan nan nan nan nan nan nan nan
nan nan nan nan nan nan nan nan nan nan nan nan nan nan nan nan nan nan nan nan nan nan nan nan nan nan nan nan nan nan nan nan nan nan nan nan nan nan nan nan nan nan nan nan nan nan nan nan nan nan nan nan nan nan nan nan nan nan nan nan nan nan nan nan nan nan nan nan nan nan nan nan nan nan nan nan nan nan nan nan nan nan nan nan nan nan
nan nan nan nan nan nan nan nan nan nan nan nan nan nan nan nan nan nan nan nan nan nan nan nan nan nan nan nan nan nan nan nan nan nan nan nan nan nan nan nan nan nan nan nan nan nan nan nan nan nan nan nan nan nan 0 nan nan nan nan nan nan nan nan nan nan nan nan nan nan nan nan nan nan nan nan nan nan nan nan nan nan nan nan nan nan nan
nan nan nan nan nan nan nan nan nan nan nan nan nan nan nan nan nan nan nan nan nan nan nan nan nan nan nan nan nan nan nan nan nan nan nan nan nan nan nan nan nan nan nan nan nan nan nan nan nan nan nan nan 0 0 nan nan nan nan nan nan nan nan nan nan nan nan nan nan nan nan nan nan nan nan nan nan nan nan nan nan nan nan nan nan nan nan
nan nan nan nan nan nan nan nan nan nan nan nan nan nan nan nan nan nan nan nan nan nan nan nan nan nan nan nan nan nan nan nan nan nan nan nan nan nan nan nan nan nan nan nan nan nan nan nan nan nan nan nan nan nan nan nan nan nan nan nan nan nan nan nan nan nan nan nan nan nan nan nan nan nan nan nan nan nan nan nan nan nan nan nan nan nan
nan nan nan nan nan nan nan nan nan nan nan nan nan nan nan nan nan nan nan nan nan nan nan nan nan nan nan nan nan nan nan nan nan nan nan nan nan nan nan nan nan nan nan nan nan nan nan nan nan nan nan nan nan nan nan nan nan nan nan nan nan nan nan nan nan nan nan nan nan nan nan nan nan nan nan nan nan nan nan nan nan nan nan nan nan nan
nan nan nan nan nan nan nan nan nan nan nan nan nan nan nan nan nan nan nan nan nan nan nan nan nan nan nan nan nan nan nan nan nan nan nan nan nan nan nan nan nan nan nan nan nan nan nan nan nan nan nan nan nan nan nan nan nan nan nan nan nan nan nan nan nan nan nan nan nan nan nan nan nan nan nan nan nan nan nan nan nan nan nan nan nan nan
nan nan nan nan nan nan nan nan nan nan nan nan nan nan nan nan nan nan nan nan nan nan nan nan nan nan nan nan nan nan nan nan nan nan nan nan nan nan nan nan nan nan 0 0 0 0 0 0 0 3 4 0 nan nan nan nan nan nan nan nan nan nan nan nan nan nan nan nan nan nan nan nan nan nan nan nan nan nan nan nan nan nan nan nan nan nan
nan nan nan nan nan nan nan nan nan nan nan nan nan nan nan nan nan nan nan nan nan nan nan nan nan nan nan nan nan nan nan nan nan nan nan nan nan nan nan nan nan nan nan 0 0 0 0 nan nan nan nan 18 3 3 nan nan nan nan nan nan nan nan nan nan nan nan nan nan nan nan nan nan nan nan nan nan nan nan nan nan nan nan nan nan nan nan
CIN
nan nan nan nan nan nan nan nan nan nan nan nan nan nan nan nan nan nan nan nan nan nan nan nan nan nan nan nan nan nan -0 -0 -0 -0 -0 -0 -0 -0 -0 -0 -0 -0 -0 -0 -0 -0 -0 -0 -0 -0 -0 -0 -0 -0 nan -0 -0 -0 -0 -0 -0 -0 -0 -0 -0 -0 -0 -0 -0 -0 -0 -0 -0 -0 -0 -0 -0 -0 -0 -0 -0 -0 -0 -0 -0 -0
nan nan nan nan nan nan nan nan nan nan nan nan nan nan nan nan nan nan nan nan nan nan nan nan nan nan nan nan nan nan -0 -0 -0 -0 -0 -0 -0 -0 -0 -0 -0 -0 -0 -0 -0 -0 -0 -0 -0 -0 -0 -0 -0 -0 -0 -0 -0 -0 -0 -0 -0 -0 -0 -0 -0 -0 -0 -0 -0 -0 -0 -0 -0 -0 -0 -0 -0 -0 -0 -0 -0 -0 -0 -0 -0 -0
nan nan nan nan nan nan nan nan nan nan nan nan nan nan nan nan nan nan nan nan nan nan nan nan nan nan nan nan nan nan -0 -0 -0 -0 -0 -0 -0 -0 -0 -0 -0 -0 -0 -0 -0 -0 -0 -0 -0 -0 -0 -0 -0 -0 -0 -0 -0 -0 -0 -0 -0 -0 -0 -0 -0 -0 -0 -0 -0 -0 -0 -0 -0 -0 -0 -0 -0 -0 -0 -0 -0 -0 -0 -0 -0 -0
nan nan nan nan nan nan nan nan nan nan nan nan nan nan nan nan nan nan nan nan nan nan nan nan nan nan nan nan nan nan nan -0 -0 -0 -0 -0 -0 -0 -0 -0 -0 -0 -0 -0 -0 -0 -0 -0 -0 -0 -0 -0 -0 -0 -0 -0 -0 -0 -0 nan nan nan nan nan nan nan nan nan nan nan nan -0 -0 -0 -0 -0 -0 -0 -0 -0 -0 -0 -0 -0 -0 -0
nan nan nan nan nan nan nan nan nan nan nan nan nan nan nan nan nan nan nan nan nan nan nan nan nan nan nan nan nan nan nan nan nan nan nan -0 -0 -0 -0 -0 -0 -0 -0 -0 -0 -0 -0 -0 -0 -0 -0 -0 -0 -0 -0 -0 -0 -0 nan nan nan nan nan nan nan nan nan nan nan nan nan nan -0 -0 -0 -0 -0 -0 -0 -0 -0 -0 -0 -0 -0 -0
nan nan nan nan nan nan nan nan nan nan nan nan nan nan nan nan nan nan nan nan nan nan nan nan nan nan nan nan nan nan nan nan nan nan nan nan nan nan nan -0 -0 -0 -0 -0 -0 -0 -0 -0 -0 -0 -0 -0 -0 -0 -0 -0 -0 nan nan nan nan nan nan nan nan nan nan nan nan nan nan nan nan nan nan -0 -0 -0 -0 -0 -0 -0 -0 -0 -0 -0
nan nan nan nan nan nan nan nan nan nan nan nan nan nan nan nan nan nan nan nan nan nan nan nan nan nan nan nan nan nan nan nan nan nan nan nan nan nan nan nan nan -0 -0 -0 -0 nan nan nan nan nan nan nan nan nan nan nan nan nan nan nan nan nan nan nan nan nan nan nan nan nan nan nan nan nan nan nan nan nan -0 -0 -0 -0 -0 -0 -0 -0
nan nan nan nan nan nan nan nan nan nan nan nan nan nan nan nan nan nan nan nan nan nan nan nan nan nan nan nan nan nan nan nan nan nan nan nan nan nan nan nan nan nan nan nan nan nan nan nan nan nan nan nan nan nan nan nan nan nan nan nan nan nan nan nan nan nan nan nan nan nan nan nan nan nan nan nan nan nan nan nan nan -0 -0 -0 -0 -0
nan nan nan nan nan nan nan nan nan nan nan nan nan nan nan nan nan nan nan nan nan nan nan nan nan nan nan nan nan nan nan nan nan nan nan nan nan nan nan nan nan nan nan nan nan nan nan nan nan nan nan nan nan nan nan nan nan nan nan nan nan nan nan nan nan nan nan nan nan nan nan nan nan nan nan nan nan nan nan nan nan nan -0 -0 -0 -0
nan nan nan nan nan nan nan nan nan nan nan nan nan nan nan nan nan nan nan nan nan nan nan nan nan nan nan nan nan nan nan nan nan nan nan nan nan nan nan nan nan nan nan nan nan nan nan nan nan nan nan -0 -0 -0 -0 nan nan nan nan nan nan nan nan nan nan nan nan nan nan nan nan nan nan nan nan nan nan nan nan nan nan nan nan -0 -0 -0
nan nan nan nan nan nan nan nan nan nan nan nan nan nan nan nan nan nan nan nan nan nan nan nan nan nan nan nan nan nan nan nan nan nan nan nan nan nan nan nan nan nan nan nan nan nan nan nan nan nan nan nan nan nan nan nan nan nan nan nan nan nan nan nan nan nan nan -0 -0 -0 -0 -0 nan nan nan nan nan nan nan nan nan nan nan nan nan -0
nan nan nan nan nan nan nan nan nan nan nan nan nan nan nan nan nan nan nan nan nan nan nan nan nan nan nan nan nan nan nan nan nan nan nan nan nan nan nan nan nan nan nan nan nan nan nan nan nan nan nan nan nan nan nan nan nan nan nan nan nan nan nan -0 -0 -0 -0 -0 -0 -0 -0 -0 -0 -0 -0 nan nan nan nan nan nan nan nan nan nan -0
nan nan nan nan nan nan nan nan nan nan nan nan nan nan nan nan nan nan nan nan nan nan nan nan nan nan nan nan nan nan nan nan nan nan nan nan nan nan nan nan nan nan nan nan nan nan nan nan nan nan nan nan nan nan nan nan nan nan nan nan nan nan -0 -0 -0 -0 -0 -0 -0 -0 -0 -0 -0 -0 -0 -0 -0 -0 -0 -0 -0 nan nan nan nan -0
nan nan nan nan nan nan nan nan nan nan nan nan nan nan nan nan nan nan nan nan nan nan nan nan nan nan nan nan nan nan nan nan nan nan nan nan nan nan nan nan nan nan nan nan nan nan nan nan nan nan nan nan nan nan nan nan nan nan nan nan nan -0 -0 -0 -0 -0 -0 -0 -0 -0 -0 -0 -0 -0 -0 -0 -0 -0 -0 -0 -0 -0 -0 -0 -0 -0
nan nan nan nan nan nan nan nan nan nan nan nan nan nan nan nan nan nan nan nan nan nan nan nan nan nan nan nan nan nan nan nan nan nan nan nan nan nan nan nan nan nan nan nan nan nan nan nan nan nan nan nan nan nan nan nan nan nan nan -0 -0 -0 -0 -0 -0 -0 -0 -0 -0 -0 -0 -0 -0 -0 -0 -0 -0 -0 -0 -0 -0 -0 -0 -0 -0 -0
nan nan nan nan nan nan nan nan nan nan nan nan nan nan nan nan nan nan nan nan nan nan nan nan nan nan nan nan nan nan nan nan nan nan nan nan nan nan nan nan nan nan nan nan nan nan nan nan nan nan nan nan nan nan nan nan nan nan -0 -0 -0 -0 -0 -0 -0 -0 -0 -0 -0 -0 -0 -0 -0 -0 -0 -0 -0 -0 -0 -0 -0 -0 -0 -0 -0 -0
nan nan nan nan nan nan nan nan nan nan nan nan nan nan nan nan nan nan nan nan nan nan nan nan nan nan nan nan nan nan nan nan nan nan nan nan nan nan nan nan nan nan nan nan nan nan nan nan nan nan nan nan nan nan nan nan nan nan -0 -0 -0 -0 -0 -0 -0 -0 -0 -0 -0 -0 -0 -0 -0 -0 -0 -0 -0 -0 -0 -0 -0 -0 -0 -0 -0 -0
nan nan nan nan nan nan nan nan nan nan nan nan nan nan nan nan nan nan nan nan nan nan nan nan nan nan nan nan nan nan nan nan nan nan nan nan nan nan nan nan nan nan nan nan nan nan nan nan nan nan nan nan nan nan nan nan nan nan -0 -0 -0 -0 -0 -0 -0 -0 -0 -0 -0 -0 -0 -0 -0 -0 -0 -0 -0 -0 -0 -0 -0 -0 -0 -0 -0 -0
nan nan nan nan nan nan nan nan nan nan nan nan nan nan nan nan nan nan nan nan nan nan nan nan nan nan nan nan nan nan nan nan nan nan nan nan nan nan nan nan nan nan nan nan nan nan nan nan nan nan nan nan nan nan nan nan nan nan -0 -0 -0 -0 -0 -0 -0 -0 -0 -0 -0 -0 -0 -0 -0 -0 -0 -0 -0 -0 -0 -0 -0 -0 -0 -0 -0 -0
nan nan nan nan nan nan nan nan nan nan nan nan nan nan nan nan nan nan nan nan nan nan nan nan nan nan nan nan nan nan nan nan nan nan nan nan nan nan nan nan nan nan nan nan nan nan nan nan nan nan nan nan nan nan nan nan nan nan -0 -0 -0 -0 -0 -0 -0 -0 -0 -0 -0 -0 -0 -0 -0 -0 -0 -0 -0 -0 -0 -0 -0 -0 -0 -0 -0 -0
nan nan nan nan nan nan nan nan nan nan nan nan nan nan nan nan nan nan nan nan nan nan nan nan nan nan nan nan nan nan nan nan nan nan nan nan nan nan nan nan nan nan nan nan nan nan nan nan nan nan nan nan nan nan nan nan nan nan -0 -0 -0 nan -0 -0 -0 -0 -0 -0 -0 -0 -0 -0 -0 -0 -0 -0 -0 -0 -0 -0 -0 -0 -0 -0 -0 -0
nan nan nan nan nan nan nan nan nan nan nan nan nan nan nan nan nan nan nan nan nan nan nan nan nan nan nan nan nan nan nan nan nan nan nan nan nan nan nan nan nan nan nan nan nan nan nan nan nan nan nan nan nan nan nan nan nan nan nan nan nan nan nan -0 -0 -0 -0 -0 -0 -0 -0 -0 -0 -0 -0 -0 -0 -0 -0 -0 -0 -0 -0 -0 -0 -0
nan nan nan nan nan nan nan nan nan nan nan nan nan nan nan nan nan nan nan nan nan nan nan nan nan nan nan nan nan nan nan nan nan nan nan nan nan nan nan nan nan nan nan nan nan nan nan nan nan nan nan nan nan nan nan nan nan nan nan nan nan nan nan -0 -0 -0 -0 -0 -0 -0 -0 -0 -0 -0 -0 -0 -0 -0 -0 -0 -0 -0 -0 -0 -0 -0
nan nan nan nan nan nan nan nan nan nan nan nan nan nan nan nan nan nan nan nan nan nan nan nan nan nan nan nan nan nan nan nan nan nan nan nan nan nan nan nan nan nan nan nan nan nan nan nan nan nan nan nan nan nan nan nan nan nan nan nan nan nan nan -0 -0 -0 -0 -0 -0 -0 -0 -0 -0 -0 -0 -0 -0 -0 -0 -0 -0 -0 -0 -0 -0 -0
nan nan nan nan nan nan nan nan nan nan nan nan nan nan nan nan nan nan nan nan nan nan nan nan nan nan nan nan nan nan nan nan nan nan nan nan nan nan nan nan nan nan nan nan nan nan nan nan nan nan nan nan nan nan nan nan nan nan nan nan nan -0 -0 -0 -0 -0 -0 -0 -0 -0 -0 -0 -0 -0 -0 -0 -0 -0 -0 -0 -0 -0 -0 -0 -0 -0
nan nan nan nan nan nan nan nan nan nan nan nan nan nan nan nan nan nan nan nan nan nan nan nan nan nan nan nan nan nan nan nan nan nan nan nan nan nan nan nan nan nan nan nan nan nan nan nan nan nan nan nan nan nan nan nan nan nan nan nan nan -0 -0 -0 -0 -0 -0 -0 -0 -0 -0 -0 -0 -0 -0 -0 -0 -0 -0 -0 -0 -0 -0 -0 -0 -0
nan nan nan nan nan -0 -0 nan -0 -0 nan nan nan nan nan nan nan nan nan nan nan nan nan nan nan nan nan nan nan nan nan nan nan nan nan nan nan nan nan nan nan nan nan nan nan nan nan nan nan nan nan nan nan nan nan nan nan nan nan nan nan nan -0 -0 -0 -0 -0 -0 -0 -0 -0 -0 -0 -0 -0 -0 -0 -0 -0 -0 -0 -0 -0 -0 -0 -0
nan nan nan nan nan nan nan nan -0 -0 -0 -0 nan nan nan nan nan nan nan nan nan nan nan nan nan nan nan nan nan nan nan nan nan nan nan nan nan nan nan nan nan nan nan nan nan nan nan nan nan nan nan nan nan nan nan nan nan nan nan nan nan nan nan -0 -0 -0 -0 -0 -0 -0 -0 -0 -0 -0 -0 -0 -0 -0 -0 -0 -0 -0 -0 -0 -0 nan
nan nan nan nan nan nan nan nan nan nan nan -0 -0 -0 nan nan nan nan nan nan nan nan nan nan nan nan nan nan nan nan nan nan nan nan nan nan nan nan nan nan nan nan nan nan nan nan nan nan nan nan nan nan nan nan nan nan nan nan nan nan nan nan nan nan nan nan -0 -0 -0 -0 -0 -0 -0 -0 -0 -0 -0 -0 -0 -0 -0 -0 -0 -11 -11 -28
nan nan nan nan nan nan nan nan nan nan nan nan -0 -0 nan nan nan nan nan nan nan nan nan nan nan nan nan nan nan nan nan nan nan nan nan nan nan nan nan nan nan nan nan nan nan nan nan nan nan nan nan nan nan nan nan nan nan nan nan nan nan nan nan nan nan nan -0 -0 -0 -0 -0 -0 -0 -0 -0 -0 -0 -0 -0 -0 -0 -0 -3 nan nan nan
nan nan nan nan nan nan nan nan nan nan nan -0 -0 -0 nan nan nan nan nan nan nan nan nan nan nan nan nan nan nan nan nan nan nan nan nan nan nan nan nan nan nan nan nan nan nan nan nan nan nan nan nan nan nan nan nan nan nan nan nan nan nan nan nan -0 -0 -0 -0 -0 -0 -0 -0 -0 -0 -0 -0 -0 -0 -0 -0 -0 -0 -0 nan nan nan nan
nan nan nan nan nan nan nan nan nan nan nan nan nan nan nan nan nan nan nan nan nan nan nan nan nan nan nan nan nan nan nan nan nan nan nan nan nan nan nan nan nan nan nan nan nan nan nan nan nan nan nan nan nan nan nan nan nan nan nan nan nan nan nan nan nan nan nan nan nan nan nan -0 -0 -0 -0 -0 -0 -0 -0 -0 -0 -0 nan nan nan nan
nan nan nan nan nan nan nan nan nan nan nan nan nan nan nan nan nan nan nan nan nan nan nan nan nan nan nan nan nan nan nan nan nan nan nan nan nan nan nan nan nan nan nan nan nan nan nan nan nan nan nan nan nan nan nan nan nan nan nan nan nan nan nan nan nan nan nan nan nan nan nan nan nan nan -0 -0 -0 -0 -0 -0 -0 -0 -13 nan nan nan
nan nan nan nan nan nan nan nan nan nan nan nan nan nan nan nan nan nan nan nan nan nan nan nan nan nan nan nan nan nan nan nan nan nan nan nan nan nan nan nan nan nan nan nan nan nan nan nan nan nan nan nan nan nan nan nan nan nan nan nan nan nan nan nan nan nan nan nan nan nan nan nan nan nan nan nan -0 -0 -0 -0 -0 -0 -0 nan nan nan
nan nan nan nan nan nan nan nan nan nan nan nan nan nan nan nan nan nan nan nan nan nan nan nan nan nan nan nan nan nan nan nan nan nan nan nan nan nan nan nan nan nan nan nan nan nan nan nan nan nan nan nan nan nan nan nan nan nan nan nan nan nan nan nan nan nan nan nan nan nan nan nan nan nan nan nan -2 -2 -0 -0 -0 -0 -0 -0 -0 -9
nan nan nan nan nan nan nan nan nan nan nan nan nan nan nan nan nan nan nan nan nan nan nan nan nan nan nan nan nan nan nan nan nan nan nan nan nan nan nan nan nan nan nan nan nan nan nan nan nan nan nan nan nan nan nan nan nan nan nan nan nan nan nan nan nan nan nan nan nan nan nan nan nan nan nan nan -1 -1 -0 -0 -0 -0 -0 -0 -0 -0
nan nan nan nan nan nan nan nan nan nan nan nan nan nan nan nan nan nan nan nan nan nan nan nan nan nan nan nan nan nan nan nan nan nan nan nan nan nan nan nan nan nan nan nan nan nan nan nan nan nan nan nan nan nan nan nan nan nan nan nan nan nan nan nan nan nan nan nan nan nan nan nan nan nan nan nan nan nan nan nan nan nan -0 -0 -0 -0
nan nan nan nan nan nan nan nan nan nan nan nan nan nan nan nan nan nan nan nan nan nan nan nan nan nan nan nan nan nan nan nan nan nan nan nan nan nan nan nan nan nan nan nan nan nan nan nan nan nan nan nan nan nan nan nan nan nan nan nan nan nan nan nan nan nan nan nan nan nan nan nan nan nan nan nan nan nan nan nan nan nan nan nan nan -0
nan nan nan nan nan nan nan nan nan nan nan nan nan nan nan nan nan nan nan nan nan nan nan nan nan nan nan nan nan nan nan nan nan nan nan nan nan nan nan nan nan nan nan nan nan nan nan nan nan nan nan nan nan nan nan nan nan nan nan nan nan nan nan nan nan nan nan nan nan nan nan nan nan nan nan nan nan nan nan nan nan nan nan nan nan nan
nan nan nan nan nan nan nan nan nan nan nan nan nan nan nan nan nan nan nan nan nan nan nan nan nan nan nan nan nan nan nan nan nan nan nan nan nan nan nan nan nan nan nan nan nan nan nan nan nan nan nan nan nan nan nan nan nan nan nan nan nan nan nan nan nan nan nan nan nan nan nan nan nan nan nan nan nan nan nan nan nan nan nan nan nan nan
nan nan nan nan nan nan nan nan nan nan nan nan nan nan nan nan nan nan nan nan nan nan nan nan nan nan nan nan nan nan nan nan nan nan nan nan nan nan nan nan nan nan nan nan nan nan nan nan nan nan nan nan nan nan -1 nan nan nan -0 nan nan nan nan nan nan nan nan nan nan nan nan nan nan nan nan nan nan nan nan nan nan nan nan nan nan nan
nan nan nan nan nan nan nan nan nan nan nan nan nan nan nan nan nan nan nan nan nan nan nan nan nan nan nan nan nan nan nan nan nan nan nan nan nan nan nan nan nan nan nan nan nan nan nan nan nan nan nan nan nan nan nan nan nan nan nan nan nan nan nan nan nan nan nan nan nan nan nan nan nan nan nan nan nan nan nan nan nan nan nan nan nan nan
nan nan nan nan nan nan nan nan nan nan nan nan nan nan nan nan nan nan nan nan nan nan nan nan nan nan nan nan nan nan nan nan nan nan nan nan nan nan nan nan nan nan nan nan nan nan nan nan nan nan nan nan nan nan nan nan nan nan nan nan nan nan nan nan nan nan nan nan nan nan nan nan nan nan nan nan nan nan nan nan nan nan nan nan nan nan
nan nan nan nan nan nan nan nan nan nan nan nan nan nan nan nan nan nan nan nan nan nan nan nan nan nan nan nan nan nan nan nan nan nan nan nan nan nan nan nan nan nan nan nan nan nan nan nan nan nan nan nan nan nan nan nan nan nan nan nan nan nan nan nan nan nan nan nan nan nan nan nan nan nan nan nan nan nan nan nan nan nan nan nan nan nan
nan nan nan nan nan nan nan nan nan nan nan nan nan nan nan nan nan nan nan nan nan nan nan nan nan nan nan nan nan nan nan nan nan nan nan nan nan nan nan nan nan nan nan nan nan nan nan nan nan nan nan nan nan nan -3 nan nan nan nan nan nan nan nan nan nan nan nan nan nan nan nan nan nan nan nan nan nan nan nan nan nan nan nan nan nan nan
nan nan nan nan nan nan nan nan nan nan nan nan nan nan nan nan nan nan nan nan nan nan nan nan nan nan nan nan nan nan nan nan nan nan nan nan nan nan nan nan nan nan nan nan nan nan nan nan nan nan nan nan -5 -5 nan nan nan nan nan nan nan nan nan nan nan nan nan nan nan nan nan nan nan nan nan nan nan nan nan nan nan nan nan nan nan nan
nan nan nan nan nan nan nan nan nan nan nan nan nan nan nan nan nan nan nan nan nan nan nan nan nan nan nan nan nan nan nan nan nan nan nan nan nan nan nan nan nan nan nan nan nan nan nan nan nan nan nan nan nan nan nan nan nan nan nan nan nan nan nan nan nan nan nan nan nan nan nan nan nan nan nan nan nan nan nan nan nan nan nan nan nan nan
nan nan nan nan nan nan nan nan nan nan nan nan nan nan nan nan nan nan nan nan nan nan nan nan nan nan nan nan nan nan nan nan nan nan nan nan nan nan nan nan nan nan nan nan nan nan nan nan nan nan nan nan nan nan nan nan nan nan nan nan nan nan nan nan nan nan nan nan nan nan nan nan nan nan nan nan nan nan nan nan nan nan nan nan nan nan
nan nan nan nan nan nan nan nan nan nan nan nan nan nan nan nan nan nan nan nan nan nan nan nan nan nan nan nan nan nan nan nan nan nan nan nan nan nan nan nan nan nan nan nan nan nan nan nan nan nan nan nan nan nan nan nan nan nan nan nan nan nan nan nan nan nan nan nan nan nan nan nan nan nan nan nan nan nan nan nan nan nan nan nan nan nan
nan nan nan nan nan nan nan nan nan nan nan nan nan nan nan nan nan nan nan nan nan nan nan nan nan nan nan nan nan nan nan nan nan nan nan nan nan nan nan nan nan nan -12 -8 -8 -5 -6 -4 -4 -0 -1 -2 nan nan nan nan nan nan nan nan nan nan nan nan nan nan nan nan nan nan nan nan nan nan nan nan nan nan nan nan nan nan nan nan nan nan
nan nan nan nan nan nan nan nan nan nan nan nan nan nan nan nan nan nan nan nan nan nan nan nan nan nan nan nan nan nan nan nan nan nan nan nan nan nan nan nan nan nan nan -8 -8 -8 -8 nan nan nan nan -0 -0 -0 nan nan nan nan nan nan nan nan nan nan nan nan nan nan nan nan nan nan nan nan nan nan nan nan nan nan nan nan nan nan nan nan
Wind_Speed
1 1 1 2 2 2 1 1 2 2 1 0 0 1 1 0 0 0 0 1 1 0 0 1 1 2 3 3 2 2 2 2 2 2 2 2 2 2 2 2 2 2 2 3 3 3 3 3 3 3 4 4 4 4 4 5 5 5 6 6 6 6 7 7 7 7 7 7 7 7 7 7 7 7 6 6 5 5 5 5 6 6 7 8 8 8
0 1 1 1 2 2 1 1 2 2 1 1 0 0 1 1 1 1 1 1 1 1 0 0 0 0 1 2 2 2 2 2 2 2 2 2 2 2 2 2 2 2 2 2 2 2 2 2 2 3 3 3 3 3 4 4 5 5 6 6 6 7 7 7 7 8 8 8 8 7 7 7 7 7 7 6 6 6 6 6 6 6 7 8 8 8
1 0 0 1 1 2 1 1 1 1 1 1 1 0 1 1 1 1 1 1 1 0 0 1 1 1 1 1 1 2 2 2 2 2 2 2 2 2 2 2 2 2 2 2 2 2 2 2 2 2 2 2 3 3 3 4 5 5 6 6 6 7 7 7 7 8 8 8 8 7 7 7 7 7 7 7 7 7 7 7 7 7 7 7 8 8
1 1 1 0 1 1 1 1 1 1 1 1 0 1 1 1 0 1 1 1 1 1 1 1 1 1 1 1 1 1 2 3 3 3 3 2 2 2 2 2 2 2 2 2 2 2 2 2 2 2 2 2 2 3 3 4 5 5 5 6 6 7 7 7 7 7 8 8 8 7 7 7 7 7 7 8 8 8 8 8 7 7 7 7 7 7
1 1 1 1 1 1 1 1 1 1 0 0 1 1 1 0 0 1 1 1 1 1 1 1 1 1 1 0 0 1 2 3 3 3 3 3 2 2 2 2 2 2 2 2 2 2 2 2 2 2 2 2 3 3 3 4 4 5 5 6 6 6 7 7 7 7 8 8 8 8 8 8 8 8 8 8 8 8 8 8 8 8 8 7 7 7
1 1 1 1 1 1 1 1 1 0 0 1 1 2 1 1 1 1 1 1 1 1 1 1 1 1 1 1 1 0 2 2 3 3 3 2 2 2 2 3 3 3 3 3 3 3 2 2 2 2 2 2 3 3 3 4 4 4 5 5 6 6 7 7 7 8 8 8 8 8 8 8 8 8 8 8 8 8 9 9 9 9 8 8 8 7
1 1 0 0 1 1 1 1 1 1 1 1 1 2 2 1 2 2 2 2 2 2 2 1 1 1 2 2 2 1 1 2 2 2 2 2 2 2 2 2 3 3 2 2 2 2 2 2 2 2 2 3 3 3 4 4 4 5 5 6 6 7 7 7 8 8 8 9 9 9 9 9 9 9 9 8 8 9 9 9 9 9 9 9 9 8
1 0 1 1 1 0 0 0 0 1 1 1 1 1 2 2 2 2 2 2 2 2 2 1 2 2 2 3 3 3 2 1 1 1 1 1 1 2 2 2 2 2 1 1 1 2 2 2 2 3 3 4 4 4 5 5 5 5 5 6 6 7 7 8 8 8 9 9 9 9 9 9 9 9 9 9 9 9 9 9 9 9 10 10 9 9
2 1 0 0 1 1 0 1 1 0 1 2 2 2 1 1 2 2 3 2 2 2 1 1 1 1 2 3 3 2 2 1 0 0 1 0 0 1 1 1 1 2 2 2 2 2 2 3 3 4 4 4 5 5 5 5 5 5 5 6 6 7 7 8 8 8 9 9 9 9 9 9 9 9 9 9 8 8 8 9 9 9 10 10 10 10
2 2 1 1 1 1 1 1 1 1 1 2 2 2 2 2 1 1 2 2 2 2 2 1 1 1 2 2 2 2 1 1 1 1 2 1 1 0 0 1 1 2 3 3 3 3 3 3 4 4 4 4 4 4 4 4 4 4 5 5 6 6 7 7 8 9 9 9 9 9 9 9 9 9 8 8 8 8 8 8 9 9 10 10 10 10
1 1 1 1 0 0 1 0 0 1 1 2 2 2 2 1 2 2 2 1 2 3 3 2 1 1 1 2 3 3 2 2 3 4 4 4 3 2 2 2 2 2 3 3 3 3 3 4 4 5 5 5 5 5 5 4 4 4 4 5 5 6 7 7 8 9 9 9 9 8 8 8 8 8 8 8 8 8 8 8 8 9 9 10 10 10
1 1 1 1 1 1 1 1 1 1 2 2 2 2 2 1 1 2 2 1 1 2 3 2 2 1 1 2 2 3 2 2 2 3 4 4 5 4 4 4 4 5 4 4 4 4 4 5 5 6 6 6 6 6 5 4 4 4 4 5 5 6 7 7 8 8 9 9 8 8 8 8 8 7 7 7 7 7 7 8 8 8 9 9 9 10
1 1 1 1 1 1 1 1 2 2 2 2 1 1 0 1 0 1 2 1 1 1 2 2 2 2 1 1 1 1 2 1 2 2 3 3 3 3 3 3 3 3 4 4 3 4 4 5 5 6 6 6 5 5 5 4 4 4 4 5 6 6 7 8 8 8 8 8 8 8 8 8 8 7 7 7 7 7 7 7 7 8 8 8 9 9
1 1 1 1 1 1 1 1 1 1 1 1 1 2 1 1 0 1 2 1 0 1 1 1 1 2 2 2 1 1 1 1 1 2 3 2 2 1 1 2 2 2 2 2 2 2 3 3 3 4 5 4 4 4 4 4 4 5 5 6 6 7 7 8 8 8 8 8 8 8 8 8 8 8 7 7 7 7 7 7 7 7 7 8 8 9
1 1 2 1 0 0 0 1 1 1 1 1 1 1 1 1 1 1 2 1 1 1 1 2 2 2 2 2 2 1 1 1 2 2 3 3 2 1 0 1 1 1 1 1 2 2 2 1 1 1 2 3 3 4 4 4 5 5 6 6 7 7 8 8 8 8 8 8 8 8 8 8 8 8 7 7 7 7 7 7 7 7 7 7 8 8
1 2 2 1 1 1 1 1 1 1 1 1 1 1 1 1 1 1 2 1 0 1 2 3 3 3 3 3 2 1 1 2 2 2 2 3 2 1 1 1 1 2 2 1 2 2 2 1 1 1 1 3 4 5 6 5 5 6 6 7 7 7 7 8 8 8 8 8 8 8 8 8 8 8 7 7 7 7 7 7 7 7 8 8 8 8
1 2 2 1 1 1 1 1 1 1 1 1 1 1 2 1 1 1 2 1 1 2 2 2 1 1 2 3 2 1 1 2 2 1 1 2 2 2 1 1 0 1 2 2 2 2 2 1 1 1 2 4 5 6 6 6 6 6 6 6 7 7 7 8 8 8 8 8 8 8 8 8 8 8 8 8 7 7 7 7 8 8 8 8 8 8
1 1 2 2 1 1 1 0 0 1 1 1 1 1 1 1 1 1 1 2 2 2 2 2 2 1 1 2 3 2 1 2 2 1 1 2 3 2 0 1 1 1 2 2 2 2 2 2 2 2 3 5 6 6 6 6 6 6 6 6 6 6 7 7 8 8 8 8 8 8 8 8 8 8 8 8 8 8 8 8 8 8 8 9 9 9
1 1 2 2 1 1 0 0 1 1 1 1 1 1 1 1 1 1 1 1 2 2 2 2 1 2 2 2 3 2 0 2 2 1 1 3 3 2 1 1 0 0 1 2 3 3 2 2 3 4 5 6 6 7 7 7 6 6 6 6 6 6 7 7 7 8 8 8 8 8 7 7 7 8 8 8 8 8 8 8 8 8 9 9 9 9
1 1 2 2 2 2 1 1 1 2 2 2 2 3 2 1 1 1 1 1 1 1 2 2 1 2 2 3 3 2 1 2 2 1 1 2 3 2 1 1 1 1 2 3 3 2 2 2 2 4 5 6 7 7 7 7 7 6 6 5 6 6 6 7 7 7 7 7 7 7 7 7 7 7 7 7 8 8 8 9 9 9 9 9 9 9
1 1 2 2 3 2 1 1 2 2 2 3 3 3 2 1 1 1 1 1 1 1 1 1 1 2 3 3 3 2 1 2 2 1 1 2 2 2 1 1 1 1 2 3 3 2 1 2 2 3 4 5 7 7 8 7 7 6 5 5 5 6 6 6 6 6 7 6 7 7 7 7 7 7 7 7 7 8 8 8 8 8 8 9 9 9
2 1 2 2 2 3 2 2 2 2 3 4 4 3 2 2 2 1 1 1 1 1 1 2 3 3 2 3 3 3 2 2 2 2 1 1 2 3 1 1 1 0 1 2 2 2 1 2 2 3 4 6 7 8 8 7 6 5 5 5 5 6 6 6 6 6 6 6 6 6 7 7 7 8 8 8 8 8 8 8 8 8 8 8 9 9
2 2 2 2 2 2 2 2 2 2 2 3 4 4 3 3 3 3 3 3 3 3 3 3 2 2 2 2 3 2 1 2 3 3 2 0 2 3 2 1 1 0 2 2 2 2 2 2 2 3 4 6 7 8 8 7 6 5 5 5 5 6 6 6 6 6 6 6 6 7 7 7 8 8 8 8 9 9 9 9 9 8 8 8 8 8
3 3 2 2 2 2 3 3 2 2 2 2 2 3 3 3 3 3 3 3 3 3 2 0 1 2 2 2 2 2 1 1 2 3 2 1 2 3 2 1 1 1 2 2 2 2 2 2 2 3 3 5 7 7 7 6 5 4 4 5 6 6 6 6 7 7 7 7 7 7 7 8 8 8 8 9 9 9 9 9 9 9 9 9 9 9
4 3 3 3 4 4 4 4 4 3 3 3 2 2 2 3 3 3 2 2 2 2 2 2 2 2 2 2 2 2 2 1 1 2 2 1 1 2 2 0 0 1 3 3 2 1 2 2 3 2 2 4 6 7 7 6 5 4 5 5 6 7 7 7 7 7 7 7 8 8 8 8 8 8 9 9 9 9 9 9 9 9 9 9 9 9
4 4 4 5 6 7 7 7 6 6 6 5 4 3 3 3 3 3 3 2 2 3 3 2 2 2 2 2 2 2 2 1 1 2 2 1 1 2 2 0 0 1 2 3 2 2 1 2 3 3 2 3 5 6 6 5 5 5 5 6 7 8 8 8 8 8 8 8 8 8 8 8 8 9 9 9 9 10 10 10 10 10 10 10 9 9
4 4 5 5 5 5 5 5 6 6 7 7 6 5 4 3 3 2 1 1 1 3 3 2 1 1 2 2 2 2 2 1 0 1 2 2 1 1 2 1 0 0 2 3 2 2 2 2 2 3 3 3 4 5 6 6 6 6 7 8 9 9 9 9 8 8 8 8 8 8 8 8 8 9 9 9 9 10 10 10 10 10 10 9 8 7
3 3 2 2 2 2 3 3 3 4 4 5 6 7 5 4 3 1 1 1 2 3 3 2 1 1 1 2 2 2 2 2 1 1 2 2 1 1 2 1 0 0 1 2 2 2 2 2 2 2 3 3 3 4 5 6 7 8 9 9 10 10 10 9 9 8 8 8 8 8 8 8 9 9 9 9 9 9 10 10 10 10 9 8 5 3
3 2 1 0 1 1 2 1 2 3 4 4 5 5 4 3 3 3 3 3 3 3 2 2 2 2 1 1 2 2 2 2 1 1 2 2 1 1 2 1 1 0 0 2 2 2 3 2 2 2 2 3 3 3 3 5 6 7 8 9 10 10 10 9 9 8 8 8 8 8 9 9 9 9 9 9 9 9 9 10 9 8 7 5 3 2
4 4 3 3 3 2 2 1 1 3 4 5 5 4 1 3 3 4 3 3 3 3 2 2 2 2 1 0 1 2 2 3 2 1 2 2 0 1 1 1 1 0 1 1 2 2 3 3 2 2 2 3 3 2 2 3 3 3 4 6 7 8 9 9 9 8 8 8 8 9 9 9 10 10 10 10 9 9 9 9 8 6 4 2 2 1
2 2 2 3 3 3 2 2 1 2 3 3 3 1 1 3 3 3 3 4 4 4 3 3 3 2 2 1 0 1 2 3 2 1 3 2 1 1 1 0 1 0 1 2 1 1 2 3 3 2 2 2 2 2 2 2 2 2 2 3 4 6 8 8 8 8 8 8 9 9 9 10 10 10 10 10 10 9 9 9 8 5 2 1 1 2
1 1 1 1 2 2 2 1 1 1 2 2 1 0 2 3 3 3 4 4 4 4 4 3 3 3 3 2 2 2 2 3 2 1 3 2 1 1 1 1 0 1 0 2 2 2 1 2 3 2 2 2 2 2 2 2 2 2 1 2 2 3 6 7 7 7 7 8 9 9 10 10 10 10 10 10 10 9 9 9 8 5 2 1 1 2
0 0 1 1 1 1 1 1 1 1 1 1 1 1 1 2 3 4 4 4 4 4 4 4 3 3 2 3 3 3 3 3 2 1 3 2 1 0 0 1 0 0 1 1 1 2 2 1 2 2 2 2 2 2 2 2 2 1 1 1 1 2 4 5 5 5 6 6 7 8 9 9 10 10 10 10 10 10 9 9 8 6 3 1 2 2
1 1 1 1 1 1 1 1 1 1 1 1 2 2 1 1 2 3 4 4 4 4 4 4 4 3 3 2 2 3 3 3 3 1 2 3 2 1 1 1 1 1 1 1 1 0 1 1 1 2 2 2 2 2 2 2 2 1 0 0 1 2 3 3 3 3 4 4 4 4 6 6 7 8 9 9 9 9 9 9 9 8 7 4 2 2
1 1 1 2 2 2 2 2 1 1 1 2 2 2 2 2 2 2 3 3 4 4 4 4 4 4 4 3 3 3 3 3 3 1 2 3 2 2 1 1 1 1 1 1 0 0 1 1 1 1 2 3 3 2 2 2 2 1 1 1 1 2 2 2 2 3 3 3 3 3 3 4 4 5 6 8 9 9 10 9 9 9 9 7 5 3
1 1 2 1 1 2 2 2 2 2 2 2 2 2 2 2 2 2 2 3 3 4 4 4 4 4 4 4 4 4 4 3 2 1 2 3 3 2 1 1 2 2 2 1 1 0 1 1 2 2 2 3 3 3 2 2 2 2 1 1 2 2 3 2 2 2 2 2 3 3 3 3 3 4 5 7 9 9 10 10 10 10 10 9 9 7
1 1 2 1 1 1 2 2 2 2 2 3 2 2 2 2 2 2 2 2 2 3 3 3 4 4 5 4 4 4 4 3 2 2 2 3 3 3 1 1 2 2 3 2 1 1 1 2 2 3 3 2 2 2 3 2 2 2 2 2 2 3 3 3 2 1 1 2 3 3 3 3 3 3 4 7 8 8 9 9 10 10 10 10 10 10
0 1 2 1 1 1 1 1 2 2 2 2 2 2 2 1 1 1 1 1 1 2 2 2 3 3 5 5 5 4 3 3 3 3 3 3 3 3 2 1 2 2 3 2 2 1 1 2 3 3 3 2 3 3 3 2 3 3 3 3 3 3 3 3 2 1 1 2 3 4 4 4 3 3 4 4 4 4 4 5 6 8 9 9 9 10
1 1 2 2 2 1 2 2 2 2 2 2 1 1 1 1 1 0 0 1 1 1 2 2 2 2 3 4 4 4 4 4 4 4 4 3 3 3 3 2 2 2 2 2 2 2 2 2 2 3 3 3 3 2 2 2 2 3 3 3 3 2 2 2 2 2 2 2 3 4 4 3 3 2 3 2 2 2 2 3 4 4 4 4 5 7
2 2 2 2 2 2 3 3 3 2 1 1 0 0 1 1 0 0 0 0 0 1 1 1 1 1 2 2 3 3 3 3 3 4 4 3 3 3 3 3 3 2 2 2 2 2 2 2 3 3 3 3 3 3 3 2 2 3 4 3 3 2 2 2 2 2 2 2 2 3 3 3 3 3 3 2 2 2 2 2 3 3 2 1 2 3
2 2 3 2 2 2 3 2 2 1 0 0 1 1 1 1 1 1 1 1 1 1 1 1 1 1 2 2 2 2 2 3 3 3 3 4 4 4 4 4 3 3 2 2 2 3 3 3 3 4 4 4 4 5 5 4 4 5 6 4 4 4 4 4 3 2 2 2 2 2 2 3 3 3 3 3 3 3 3 3 3 3 2 2 2 2
3 3 3 2 2 2 1 1 0 0 0 1 1 1 0 0 0 1 1 1 1 1 1 1 1 2 2 3 3 2 2 2 3 4 4 4 5 5 4 4 4 3 3 3 3 3 3 3 4 4 4 4 4 4 4 4 4 5 5 4 4 5 6 5 3 1 1 2 2 2 2 3 3 3 3 4 4 4 4 3 4 4 4 2 2 3
3 3 2 2 2 1 0 0 0 0 0 1 1 0 1 1 1 1 1 0 1 1 1 1 1 0 1 2 3 3 2 2 3 3 4 5 5 5 5 5 4 4 3 3 3 3 3 4 4 4 4 3 4 4 5 5 5 4 4 4 3 3 3 3 2 1 1 2 2 2 2 3 3 4 4 4 4 3 3 4 5 6 5 3 3 3
3 2 2 1 1 1 0 0 0 0 0 0 0 1 1 1 1 1 1 1 1 1 0 0 1 1 0 1 2 2 3 3 3 3 3 5 6 6 5 5 5 5 4 3 3 2 2 3 4 3 3 3 4 4 5 5 5 4 3 3 3 3 3 3 3 2 2 3 3 3 3 3 3 3 3 3 3 3 3 3 3 4 4 3 3 3
2 1 1 1 0 0 0 1 1 0 0 0 1 1 1 1 1 1 1 1 1 1 1 1 1 0 1 1 1 1 2 2 2 3 3 4 5 6 6 5 5 4 4 4 3 3 3 3 3 3 3 3 4 5 6 5 5 5 4 4 4 4 5 4 4 4 4 4 4 4 3 3 2 3 3 3 3 3 3 3 3 4 4 3 3 4
1 1 1 1 1 1 2 1 1 0 0 1 1 1 1 1 1 1 1 1 1 1 1 1 1 1 1 1 1 1 1 2 2 2 3 3 2 2 4 4 4 4 4 4 4 4 4 3 3 3 3 4 4 5 6 6 5 5 5 4 4 4 5 5 4 4 4 4 4 4 3 2 1 2 3 3 4 4 3 3 4 4 4 4 4 4
2 2 2 2 1 2 2 1 1 1 1 1 2 2 1 1 1 1 1 1 1 1 1 1 1 2 2 2 1 1 1 2 2 2 2 2 2 1 1 3 4 4 4 4 4 5 5 5 4 4 4 4 5 5 5 5 5 5 5 4 3 3 4 4 4 4 3 3 4 3 2 1 1 2 3 4 4 4 3 3 4 4 4 4 4 4
4 3 3 2 2 2 2 1 1 1 2 2 2 2 1 1 1 1 1 1 1 1 1 1 1 2 2 2 2 2 2 3 2 2 2 2 2 1 1 2 3 3 4 4 5 5 5 6 6 6 5 5 5 6 6 5 5 5 4 3 3 4 5 5 4 4 3 3 3 3 2 2 2 3 4 4 4 4 4 4 4 4 4 4 4 4
4 4 3 3 3 2 3 2 2 2 3 2 2 2 2 2 2 3 2 1 1 1 1 2 2 2 3 3 3 2 3 3 3 2 2 2 2 2 1 1 2 2 2 3 4 5 5 6 7 8 7 7 6 7 7 6 5 5 4 3 4 4 5 5 5 4 3 3 3 3 2 3 3 4 3 4 5 5 5 4 4 4 4 4 4 4
4 4 4 3 3 3 4 3 3 3 3 3 3 2 2 1 1 1 1 1 1 1 2 2 2 3 3 3 3 3 3 2 2 2 2 2 2 2 2 1 1 1 2 2 3 3 3 4 6 7 9 10 9 8 7 7 5 4 4 4 4 4 4 5 5 4 4 4 3 3 3 3 3 3 3 4 5 6 6 5 4 4 3 3 4 4
4 4 4 4 4 4 4 4 4 4 4 4 3 3 2 1 1 1 1 1 1 1 1 2 2 3 3 3 3 3 3 3 3 3 2 2 2 2 2 2 2 1 2 2 2 2 2 2 3 4 6 10 12 11 8 6 5 4 4 4 4 3 3 4 4 4 4 4 3 3 3 3 3 4 4 4 4 5 6 6 5 4 3 3 3 4
Wind_Direction
94 94 68 93 99 100 95 109 118 124 133 112 12 353 352 333 305 301 19 93 99 95 19 360 349 344 339 359 20 40 51 55 60 66 69 72 74 74 74 71 67 62 58 54 52 49 48 45 41 38 35 32 31 31 31 31 31 31 30 27 25 23 20 17 16 14 11 10 9 7 5 3 0 356 351 342 332 320 311 301 295 291 287 284 283 283
46 24 15 76 94 105 115 103 108 115 125 131 352 345 12 360 352 349 4 48 92 124 173 165 182 315 309 327 2 37 50 55 60 64 67 68 68 69 70 68 67 67 67 67 67 64 60 55 51 46 44 42 42 43 43 41 39 38 35 31 27 24 21 19 16 14 10 9 7 5 3 359 355 350 344 337 328 320 313 306 302 299 292 288 285 283
121 54 318 79 103 114 144 125 114 119 140 163 175 148 81 42 14 352 351 360 14 39 73 141 156 175 238 300 354 46 60 65 70 73 74 74 73 74 75 74 74 76 78 81 82 82 81 75 69 65 62 58 55 53 50 45 41 37 32 28 23 20 16 13 10 7 4 2 360 357 355 351 347 342 338 333 328 323 320 318 316 314 309 301 294 288
144 163 210 158 119 132 164 154 141 143 168 162 129 85 83 81 35 294 295 317 340 3 21 51 117 153 191 289 335 45 78 80 80 80 80 82 83 85 88 89 91 91 93 95 95 95 94 88 85 82 74 65 59 54 47 40 35 30 25 20 15 10 7 3 360 357 354 351 349 346 343 340 337 334 331 330 327 324 321 320 320 319 315 309 302 295
167 180 192 160 141 158 187 158 155 166 189 66 43 40 50 63 276 282 305 336 352 7 30 38 58 122 171 239 262 92 97 93 90 87 85 85 87 89 93 95 98 100 101 98 94 91 87 84 81 76 63 52 45 39 32 27 22 17 12 7 2 358 354 350 347 344 341 338 336 333 331 329 327 325 324 323 321 319 317 316 315 314 312 309 304 299
195 198 188 154 152 166 185 154 145 144 51 25 22 19 17 3 353 348 351 356 356 2 25 34 27 360 340 303 282 144 111 102 101 99 95 91 89 87 87 87 87 88 87 83 79 75 69 65 58 46 29 20 13 8 4 2 359 357 355 351 348 343 340 337 334 331 329 326 324 322 320 318 316 315 315 314 313 312 311 310 309 308 306 304 302 299
203 238 208 121 132 145 146 151 143 131 107 45 15 9 7 6 6 5 4 360 356 358 9 21 16 4 357 341 338 352 54 87 101 108 106 100 92 86 79 74 71 68 66 62 57 50 42 31 14 357 344 339 335 331 330 333 335 337 338 337 335 332 330 327 325 322 320 317 315 313 311 309 308 307 306 306 305 305 305 305 304 303 301 299 297 296
140 357 11 62 76 68 48 352 144 134 132 125 93 34 14 8 4 3 1 7 8 5 4 13 15 9 358 350 352 356 9 35 60 74 93 76 68 65 64 55 45 36 26 18 8 358 348 335 326 319 314 312 312 312 312 319 323 327 329 329 328 327 325 323 321 319 316 313 311 308 306 304 302 300 299 298 298 298 299 298 298 298 297 296 294 293
132 138 145 134 124 113 80 298 302 68 114 125 122 113 86 38 9 1 3 6 4 3 9 34 32 10 341 342 345 347 343 349 357 134 109 59 24 29 43 25 4 343 321 316 313 313 311 311 309 307 305 306 306 307 311 317 321 324 326 325 325 324 324 323 320 318 315 312 310 307 304 302 299 297 295 293 293 292 292 292 292 293 293 293 292 292
123 137 154 171 158 142 140 217 297 352 64 98 109 115 119 109 81 41 21 355 343 342 6 50 65 26 322 328 331 334 334 336 9 50 72 30 16 193 259 338 310 293 301 302 303 306 308 314 314 314 315 316 315 316 321 323 325 325 325 324 323 323 323 322 320 318 315 312 310 307 305 302 299 297 294 292 290 289 288 288 288 288 289 290 290 290
110 126 134 136 112 87 112 148 308 4 47 68 67 62 62 81 99 102 89 3 330 332 346 10 35 29 329 328 331 338 355 360 5 9 15 13 10 5 359 350 332 317 317 320 324 329 334 337 338 339 341 340 338 337 335 335 333 329 325 322 321 320 320 319 318 315 313 311 310 308 306 304 301 298 295 292 290 288 287 286 286 286 286 287 287 288
126 123 113 106 79 48 40 30 17 20 43 58 54 36 13 6 63 109 119 131 314 322 329 338 348 354 344 328 330 339 3 13 5 356 358 5 8 9 5 360 354 349 342 347 355 1 3 5 3 1 360 357 352 347 342 341 335 328 323 319 317 316 316 315 314 312 311 311 310 310 309 306 303 300 296 293 290 288 286 286 285 285 284 284 284 284
103 97 87 73 63 52 47 39 32 30 38 66 92 116 220 304 19 104 116 140 197 273 302 326 334 334 321 317 326 340 4 14 2 350 353 358 2 5 7 2 355 351 348 353 357 4 11 16 14 11 10 4 356 347 339 334 327 321 316 313 312 312 313 312 311 310 310 310 310 310 310 308 305 302 298 295 291 289 287 286 285 285 284 283 282 282
76 71 73 64 49 38 58 85 87 85 73 126 154 168 186 202 95 89 94 107 246 266 286 353 347 332 320 321 326 343 18 29 14 360 354 342 338 344 10 356 343 336 347 346 340 339 353 17 19 13 8 2 352 340 326 319 314 310 308 308 309 310 311 311 310 309 308 308 308 307 307 306 304 303 300 298 296 294 292 291 289 287 285 284 282 282
115 100 94 101 129 203 180 138 132 143 183 186 174 154 123 58 54 68 81 56 332 327 10 22 7 343 321 309 314 347 41 57 39 17 351 326 312 298 71 356 332 325 343 334 311 303 321 4 11 352 343 334 319 307 301 298 300 303 304 306 308 310 312 312 310 309 307 306 305 304 303 303 303 303 302 301 299 298 296 295 293 291 289 286 284 283
128 117 121 146 186 218 218 169 153 154 175 176 146 112 98 78 70 83 102 112 24 19 39 34 15 350 324 310 317 6 51 68 65 41 351 314 302 295 102 45 342 321 321 305 286 284 299 315 310 287 288 294 298 301 303 301 301 303 304 306 309 311 313 313 312 309 307 305 303 302 301 301 301 302 301 300 298 297 296 295 294 293 292 289 287 285
123 118 127 139 177 226 241 190 147 141 143 124 102 96 105 118 122 119 118 121 89 64 66 77 65 357 317 312 319 345 58 79 82 67 3 302 292 288 98 100 320 299 301 288 275 269 276 280 276 266 260 277 291 302 306 305 304 304 304 306 309 312 314 314 312 310 307 305 302 300 300 300 300 300 299 297 295 293 292 291 291 291 291 290 289 288
126 131 131 140 167 206 225 181 120 116 115 109 95 80 73 87 100 104 104 104 99 96 97 111 131 163 207 285 292 300 57 92 88 62 355 297 288 288 8 112 151 254 283 278 271 261 251 248 246 252 264 290 300 306 310 307 306 304 304 307 310 313 315 314 312 310 307 304 302 300 299 299 298 297 297 295 293 291 288 287 287 286 287 288 288 288
147 151 144 154 165 174 158 166 159 153 140 139 127 107 78 53 62 75 81 93 109 122 131 136 157 182 189 236 259 269 124 105 92 60 334 291 285 291 336 45 64 292 279 271 265 257 249 247 252 262 277 299 307 310 310 308 306 304 305 309 313 315 317 315 312 309 306 304 303 302 300 298 296 294 292 292 291 290 287 284 283 282 283 284 284 285
159 180 178 164 148 135 124 210 200 180 163 149 127 111 104 86 68 68 78 92 114 127 134 139 172 211 218 242 260 267 196 97 82 56 304 280 281 290 326 25 30 323 294 276 266 259 252 259 272 283 291 300 307 310 310 308 307 306 308 312 316 318 318 316 313 310 307 307 307 307 306 304 301 297 294 292 288 284 283 281 279 279 279 280 281 281
147 204 216 174 148 136 147 202 208 190 158 130 113 101 108 103 91 86 115 122 120 118 116 139 196 217 215 236 254 256 188 108 91 65 299 293 290 292 314 45 60 360 298 282 276 271 269 275 276 279 282 299 306 309 310 308 307 309 312 316 320 321 320 317 314 311 309 311 312 314 314 312 311 310 308 302 296 291 289 285 283 282 280 279 279 279
133 198 223 188 164 150 152 177 189 179 147 123 116 117 134 130 133 147 173 154 146 147 164 198 213 215 209 231 247 243 177 139 133 136 108 320 298 291 297 38 66 33 286 279 280 286 295 285 275 272 277 297 306 310 311 309 309 311 315 319 321 321 321 318 315 312 312 313 313 313 313 313 314 314 313 311 308 305 303 300 297 293 288 284 281 279
124 154 195 191 180 160 141 150 162 165 146 130 134 145 158 154 158 167 175 170 171 178 192 208 222 234 235 251 261 262 183 145 136 129 114 227 277 279 291 360 48 360 271 270 280 296 310 294 277 274 282 301 307 310 310 309 310 312 316 318 320 320 319 317 314 312 312 312 311 309 309 308 309 309 309 309 309 309 310 308 306 302 298 293 288 284
120 132 150 162 159 147 129 137 148 157 147 134 140 149 158 155 157 160 165 164 164 164 168 180 336 331 310 293 293 299 323 103 117 119 118 192 252 267 285 349 14 307 273 268 276 297 312 297 284 278 285 303 307 309 310 309 309 312 313 315 316 316 315 313 311 309 308 307 306 305 305 304 304 303 303 302 302 302 302 302 302 301 300 298 296 295
130 136 142 146 145 142 136 143 149 151 145 134 131 134 137 128 119 109 100 99 100 91 64 44 19 351 326 328 319 308 309 356 102 118 125 172 250 269 281 301 130 265 273 276 284 300 310 296 293 294 302 306 310 312 312 310 309 310 311 313 314 314 313 310 308 306 305 304 304 303 303 303 302 302 301 299 298 297 295 295 295 295 295 296 297 297
140 144 146 145 142 140 141 146 150 151 150 145 141 136 128 107 88 69 51 52 61 67 61 46 17 331 313 322 312 298 294 310 106 126 133 142 236 281 285 273 180 245 278 287 296 305 306 297 301 308 317 313 316 318 317 316 317 319 319 319 318 317 315 312 309 307 306 305 305 305 305 304 304 303 302 300 298 296 294 292 291 290 290 291 292 294
122 124 127 132 137 142 149 156 159 160 160 159 157 153 138 107 84 64 26 38 84 91 87 77 14 314 314 313 296 286 291 298 245 149 135 123 131 280 285 296 324 297 288 293 292 294 301 303 308 313 316 314 320 326 329 333 336 336 333 329 325 322 318 315 313 311 310 310 309 309 309 308 307 305 304 301 299 296 294 291 290 288 287 287 289 291
84 92 105 127 152 171 185 192 194 193 190 183 177 170 154 124 111 128 227 191 135 113 112 130 163 247 286 285 280 280 290 284 254 177 131 111 125 250 272 300 347 341 295 296 297 305 322 315 311 309 308 310 316 327 337 346 350 348 343 336 330 325 320 317 315 313 313 313 313 313 313 312 310 308 306 303 300 297 294 291 289 287 286 286 286 290
30 29 37 24 244 240 229 235 238 237 237 231 224 212 179 144 149 176 200 170 139 126 138 160 176 189 221 262 285 295 295 280 262 171 115 104 139 251 267 307 340 353 341 325 326 330 337 323 309 301 303 310 317 327 335 350 354 351 343 336 330 325 321 317 315 313 313 314 315 315 316 314 313 310 308 306 302 299 296 292 290 287 285 285 286 292
7 4 356 347 341 338 343 341 295 266 255 253 255 252 191 144 153 169 174 153 142 143 164 176 179 177 176 299 328 319 300 284 269 176 112 108 161 259 276 318 329 345 60 32 5 343 327 313 302 295 297 308 311 315 322 340 344 341 336 332 327 324 320 319 317 316 315 316 316 316 316 315 313 312 310 308 306 302 299 295 292 288 282 284 288 290
357 360 350 342 343 351 359 354 329 297 276 272 277 287 98 131 146 155 152 148 149 155 168 178 178 169 153 132 105 289 283 277 264 177 117 122 177 239 221 283 296 292 106 100 82 360 313 306 304 303 306 307 306 307 315 323 324 322 322 326 323 320 320 323 325 325 324 321 319 317 316 315 314 313 312 310 308 305 302 299 295 290 284 279 276 275
330 342 324 320 328 341 352 355 351 337 316 310 319 32 120 144 151 155 154 155 156 158 163 172 174 170 162 167 183 208 245 263 252 193 125 127 155 214 160 164 252 298 39 114 125 143 238 286 297 306 318 315 315 313 314 312 307 305 319 329 320 315 320 328 332 333 329 325 321 318 316 315 314 313 312 311 309 308 305 303 299 295 286 249 238 247
349 335 320 321 327 340 351 360 360 344 322 302 285 259 187 169 168 167 165 165 161 158 159 166 172 175 177 187 199 216 240 259 253 207 128 122 125 154 144 135 126 11 7 67 111 141 176 233 275 299 313 312 311 308 304 297 295 299 344 340 312 306 316 328 333 331 325 322 319 316 314 313 313 312 312 311 310 308 307 305 302 299 291 244 215 227
8 350 341 341 342 342 344 349 342 312 281 266 256 245 226 203 186 179 176 173 169 164 162 166 171 176 180 195 216 235 253 259 258 231 117 114 118 132 142 135 132 110 56 40 45 77 196 232 261 291 306 304 300 293 286 285 292 311 24 249 268 286 301 317 320 316 311 312 311 309 308 308 308 309 310 309 308 307 306 304 302 300 297 281 249 228
12 352 344 345 342 336 331 328 316 297 275 259 250 240 226 214 201 191 186 183 179 176 173 172 173 175 178 189 209 231 248 252 252 233 121 116 119 124 124 167 163 144 111 94 54 359 293 271 264 273 298 303 301 293 283 280 294 311 305 236 239 257 273 285 294 299 301 304 300 295 294 296 299 301 303 303 303 302 302 302 301 300 299 294 286 269
9 339 325 327 324 318 309 304 298 289 277 263 251 238 226 216 209 201 195 189 188 189 188 185 182 179 179 185 197 214 231 235 236 214 130 124 123 124 130 201 178 154 133 143 164 209 276 282 279 280 290 293 295 297 294 295 306 315 304 283 272 269 269 268 269 278 293 296 295 290 288 288 288 289 289 295 298 300 302 303 302 301 299 297 294 289
360 304 292 285 278 274 278 281 277 272 266 260 252 240 223 217 211 208 201 194 193 196 200 201 200 198 195 192 197 207 219 214 205 180 141 132 130 132 153 196 183 165 150 157 173 201 247 284 290 289 282 270 269 279 294 306 318 323 310 296 287 282 280 278 275 268 268 277 280 282 283 282 282 283 285 293 298 303 306 305 303 300 298 296 295 293
285 273 272 262 246 237 245 254 254 250 244 243 239 232 218 212 207 204 203 192 190 197 205 211 216 218 216 212 209 208 209 197 188 177 162 146 140 143 161 184 190 184 173 168 172 187 226 273 285 286 281 263 258 264 282 303 312 310 299 289 281 276 275 282 283 274 255 269 277 282 284 284 285 287 290 296 304 312 310 305 300 297 295 294 293 291
237 249 256 247 233 220 220 231 236 237 234 232 228 218 197 190 191 198 205 193 192 199 209 217 225 232 233 228 223 217 211 200 188 178 168 160 156 159 172 186 199 200 190 175 169 175 200 237 255 266 277 280 279 279 286 294 297 298 300 301 297 287 276 277 275 268 259 269 282 289 293 295 297 297 293 295 299 301 297 293 289 287 288 292 293 291
223 235 245 239 227 216 217 226 232 238 242 250 286 48 68 58 47 24 336 182 180 180 194 205 229 253 263 262 253 243 231 215 198 185 171 171 173 177 184 195 201 199 188 177 172 176 192 222 243 257 265 276 285 289 291 286 284 293 306 309 309 303 294 287 275 266 260 262 272 282 290 294 295 292 286 283 276 269 265 267 270 271 269 262 278 290
219 233 242 243 235 225 223 227 233 245 267 359 45 42 40 36 26 16 7 5 360 4 33 45 8 336 324 311 290 269 252 243 230 214 196 193 192 193 195 202 202 196 185 186 188 193 201 226 247 258 263 269 275 279 279 277 281 288 295 294 291 291 294 292 285 276 273 272 269 269 278 289 293 291 285 280 270 259 251 249 254 261 265 231 209 213
227 232 236 236 236 237 242 256 265 242 124 73 67 64 71 73 68 50 23 352 335 335 2 24 12 349 333 323 315 302 276 251 237 228 221 212 207 205 206 208 206 202 196 203 212 218 222 235 247 256 259 263 269 273 275 274 275 276 277 279 288 296 299 294 291 288 284 283 282 281 283 288 289 288 284 281 275 267 259 250 251 255 258 237 213 203
229 231 230 228 228 232 253 320 339 67 80 56 47 359 211 173 156 146 141 203 264 279 321 42 76 60 312 309 312 312 305 281 254 236 226 218 212 209 210 210 207 203 202 211 222 228 228 236 245 251 255 258 263 268 273 276 276 272 266 267 279 293 300 291 287 282 258 269 273 277 279 279 278 277 277 276 272 269 265 261 260 260 259 247 230 221
225 229 231 230 229 224 188 259 232 129 82 55 278 260 244 205 175 160 158 192 223 238 246 112 106 109 181 273 288 298 302 300 292 275 250 230 218 211 209 206 204 203 201 207 216 224 228 237 242 246 249 252 258 262 267 271 272 270 261 253 249 249 253 269 281 292 291 285 282 279 275 277 279 282 283 276 270 263 260 258 260 263 262 253 242 236
207 217 226 222 207 203 236 245 238 207 124 226 244 250 249 218 186 175 176 194 214 226 216 156 113 87 278 260 263 276 293 305 310 307 292 263 239 223 206 198 196 199 201 205 208 212 220 235 242 243 243 247 251 256 261 266 269 270 266 257 251 248 248 261 273 284 289 289 287 283 279 281 290 295 292 282 272 262 253 252 256 260 263 259 253 249
191 203 216 210 214 231 242 239 235 232 257 258 255 253 247 216 185 180 190 190 201 214 215 171 160 187 238 247 253 269 292 303 309 312 311 305 283 240 200 192 194 198 202 206 208 209 213 223 231 238 243 249 250 251 253 258 263 267 268 264 260 260 263 266 267 267 269 275 279 280 280 290 297 292 284 281 275 268 255 244 242 245 253 254 254 252
204 210 217 216 221 230 236 231 225 229 249 256 258 256 248 210 180 189 203 193 192 195 198 180 185 199 222 231 238 252 275 287 292 296 302 305 304 281 198 196 200 204 205 209 212 215 218 219 222 227 236 248 254 255 253 253 256 260 263 263 262 263 267 267 264 260 256 261 266 272 282 304 297 283 278 280 278 273 263 247 237 234 238 243 246 248
209 212 215 214 218 225 235 228 219 220 235 247 255 259 256 229 213 214 221 193 185 185 187 190 206 219 230 236 240 249 263 272 275 277 278 283 284 276 215 198 203 209 214 218 222 224 226 224 222 221 226 238 250 258 260 256 253 253 254 256 258 261 266 268 266 261 254 253 255 257 257 263 268 271 277 283 283 280 273 263 249 238 233 234 237 241
208 211 213 212 215 222 229 223 217 217 226 235 246 258 267 256 242 231 212 189 180 180 188 206 221 235 245 248 250 253 258 265 268 269 267 271 276 278 261 218 203 207 219 226 230 232 235 232 227 223 222 228 239 251 259 258 255 253 252 251 254 258 265 269 269 265 258 253 249 244 237 241 246 253 264 275 279 280 279 274 263 249 236 230 231 234
212 212 212 211 214 220 224 219 217 217 222 226 232 241 257 266 251 221 191 180 180 191 200 213 226 239 251 254 254 252 251 254 259 265 266 271 272 272 272 258 234 222 231 235 236 238 242 241 234 229 224 225 230 239 252 256 256 255 253 251 249 250 258 265 267 265 259 255 250 245 241 245 247 250 255 265 272 277 280 278 272 260 243 232 230 232
217 216 213 212 216 220 221 217 215 216 219 220 221 224 231 241 240 222 180 180 193 212 225 226 234 244 252 257 257 254 246 243 248 255 257 262 267 267 265 261 256 250 254 256 255 253 254 259 259 250 238 229 226 228 238 245 251 254 256 252 246 240 244 255 260 261 259 256 251 246 243 248 251 253 253 259 268 275 280 280 277 269 253 238 233 236